Location: Wien
(48.2082°N, 16.3738°E)
Time: 08:12:27
(UTC+02:00)

MOZHAYETS 4 - Pass Details

Date: 24 March 2019
Orbit: 663 x 679 km, 98.0° (Epoch: 23 April)

Event Time Altitude Azimuth Distance (km) Brightness Sun altitude
Exits shadow 01:20:12 17° 6° (N) 1,699 10.3 -37.7°
Drops below altitude 10° 01:21:20 10° 360° (N) 2,113 10.9 -37.6°
Sets 01:23:40 0° 353° (N) 3,034 11.8 -37.4°
